Edison Polo

Chefscout - Deportivo Municipal
3 Apr 2027
Samstag
Verarbeitung

Persönlichkeit

Anpassungsfähigkeit (3) Ehrgeiz (19) Kontroverse (9) Loyalität (9) Druck (4) Professionalität (8) Fairness (11) Temperament (5)

Profil

Trainerstil Demokratisch
Lizenz Kontinentale A
Entschlossenheit 3
Menschenführung 10
Motivation 8
Disziplin 7
Arbeitszufriedenheit
49%
Ermüdung
0%
Rolle Chefscout
Gehalt 21.2K p/W
Vertrag 14.03.2029

Leistung

Verhalten Normal
Trainingseffektivität
14%
Spielerentwicklung
45%
Verletzungsprävention
50%
Taktische Umsetzung
25%

Letzte Ereignisse

Spieler begutachtet jetzt
Spieler begutachtet jetzt
Spieler begutachtet jetzt
Nahm an einer Scouting-Besprechung teil jetzt
Nahm an einer Scouting-Besprechung teil jetzt
Nahm an einer Scouting-Besprechung teil jetzt
Nahm an einer Scouting-Besprechung teil jetzt
Nahm an einer Scouting-Besprechung teil jetzt

Aktuell beobachtet

202
Spieler Verein Status Fähigkeit Vertrauen Beobachtet Zuletzt beobachtet Letzte Stimme
Shea Charles Southampton Aktiv 148 / 128 40% 2 01.04.2027 -
Lloyd Jones Charlton Athletic Aktiv 136 / 133 40% 2 01.04.2027 -
Álex Valle Como Aktiv 148 / 153 40% 3 30.03.2027 -
Welington Southampton Aktiv 144 / 142 40% 4 30.03.2027 -
Gabriel Osho Cardiff City Aktiv 120 / 132 40% 1 29.03.2027 -
Harry Clarke Preston Aktiv 141 / 138 40% 1 29.03.2027 -
Tristan Crama Millwall Aktiv 118 / 108 40% 1 29.03.2027 -
James Morris Leyton Orient Aktiv 129 / 104 40% 1 29.03.2027 -
Tyreece Campbell Charlton Athletic Aktiv 111 / 105 40% 1 29.03.2027 -
Tyrese Campbell Sheffield United Aktiv 113 / 131 40% 1 29.03.2027 -
Percy Erasmus SuperSport United Aktiv 145 / 122 40% 2 28.03.2027 -
Camilo Durán Bloemfontein Celtic Aktiv 127 / 114 40% 1 28.03.2027 -
Morgan Whittaker Middlesbrough Aktiv 138 / 145 40% 1 26.03.2027 -
Cameron Archer Southampton Aktiv 143 / 142 40% 1 26.03.2027 -
Ethan Galbraith Swansea City Aktiv 133 / 125 40% 4 24.03.2027 -
Saša Lukić Ipswich Town Aktiv 144 / 131 40% 2 24.03.2027 -
Jordan Storey Preston Aktiv 104 / 124 40% 2 22.03.2027 -
Salvador Manríquez Dorados Aktiv 93 / 98 40% 1 22.03.2027 -
Azor Matusiwa Ipswich Town Aktiv 134 / 121 40% 2 20.03.2027 -
Lewis Gibson Preston Aktiv 113 / 129 40% 1 20.03.2027 -
Gift Zwane Platinum Stars Aktiv 109 / 109 40% 2 19.03.2027 -
Xavier Simons Bolton Wanderers Aktiv 130 / 111 40% 1 19.03.2027 -
Marc Bola Watford Aktiv 125 / 135 40% 2 18.03.2027 -
Julio Alonso Huesca Aktiv 129 / 125 40% 2 18.03.2027 -
Emil Riis Bristol City Aktiv 139 / 106 40% 1 18.03.2027 -
Taiwo Awoniyi Coventry City Aktiv 155 / 140 40% 1 18.03.2027 -
Erick Ngcobo Black Aces Aktiv 99 / 105 40% 4 17.03.2027 -
Issa Kaboré Wrexham Aktiv 131 / 127 40% 2 16.03.2027 -
Saba Sazonov Juve Stabia Aktiv 137 / 110 40% 1 14.03.2027 -
Keagan Manyama Ajax Cape Town Aktiv 111 / 121 40% 3 13.03.2027 -
Alfie Gilchrist West Bromwich Albion Aktiv 143 / 145 40% 2 13.03.2027 -
Japhet Tanganga Sheffield United Aktiv 139 / 113 40% 2 13.03.2027 -
Rumarn Burrell Queens Park Rangers Aktiv 116 / 127 40% 1 13.03.2027 -
Jean-Luc Morin Tours Aktiv 143 / 159 40% 1 11.03.2027 -
Konan N'Dri Lecce Aktiv 137 / 112 40% 1 11.03.2027 -
Ross McCrorie Bristol City Aktiv 124 / 124 40% 1 08.03.2027 -
Andrea Carboni Monza Aktiv 146 / 135 40% 1 08.03.2027 -
Imrân Louza Watford Aktiv 147 / 126 40% 1 07.03.2027 -
Max Johnston Derby County Aktiv 130 / 117 40% 2 06.03.2027 -
Hidemasa Morita Hull City Aktiv 148 / 132 40% 1 05.03.2027 -
Teboho Mokoena Mamelodi Sundowns Aktiv 136 / 130 40% 1 03.03.2027 -
Tyrell Malacia Leicester City Aktiv 127 / 146 40% 1 03.03.2027 -
Kane Wilson Milton Keynes Dons Aktiv 125 / 122 40% 1 03.03.2027 -
Kamogelo Sebelebele Orlando Pirates Aktiv 109 / 126 40% 3 01.03.2027 -
Vinicius Tobias Shakhtar Aktiv 119 / 150 40% 1 01.03.2027 -
Frank Onyeka Coventry City Aktiv 120 / 149 40% 2 28.02.2027 -
Flynn Downes Southampton Aktiv 128 / 119 40% 1 28.02.2027 -
Luther Billiat Ajax Cape Town Aktiv 126 / 131 40% 1 26.02.2027 -
Tariq Lamptey Queens Park Rangers Aktiv 123 / 138 40% 2 25.02.2027 -
Michael Baidoo Plymouth Argyle Aktiv 129 / 139 40% 1 25.02.2027 -
Aubrey Modiba Mamelodi Sundowns Aktiv 135 / 129 40% 1 24.02.2027 -
Jacques Ekomié Wrexham Aktiv 143 / 136 40% 1 24.02.2027 -
Leif Davis Ipswich Town Aktiv 135 / 143 40% 2 23.02.2027 -
Derry Murkin Derby County Aktiv 136 / 130 40% 1 21.02.2027 -
Kenny Tete Fulham Aktiv 144 / 134 40% 1 19.02.2027 -
Kristoffer Lund Birmingham Aktiv 109 / 136 40% 1 18.02.2027 -
Facundo Garcés Alavés Aktiv 114 / 113 40% 1 16.02.2027 -
Luke McNally Bristol City Aktiv 146 / 149 40% 1 16.02.2027 -
Tomás Ribeiro Cultural Leonesa Aktiv 128 / 110 40% 1 16.02.2027 -
Darlin Yongwa Norwich City Aktiv 121 / 125 40% 1 16.02.2027 -
Gustavo Hamer Sheffield United Aktiv 120 / 129 40% 1 15.02.2027 -
Samuele Birindelli Monza Aktiv 127 / 115 40% 2 14.02.2027 -
Eoin Toal Bolton Wanderers Aktiv 137 / 113 40% 1 12.02.2027 -
Jonathan Varane Queens Park Rangers Aktiv 145 / 135 40% 1 10.02.2027 -
Noah Sadiki Sunderland Aktiv 135 / 146 40% 1 10.02.2027 -
Felix Kudus Hasaacas Aktiv 102 / 105 40% 1 07.02.2027 -
Charlie Webster Burton Albion Aktiv 106 / 121 40% 1 07.02.2027 -
Sondre Langås Derby County Aktiv 121 / 136 40% 1 07.02.2027 -
Arsène Kouassi FC Lorient Aktiv 134 / 114 40% 1 07.02.2027 -
Marcus Ifill Bromley Aktiv 93 / 119 40% 1 06.02.2027 -
Diego Murillo Málaga Aktiv 134 / 124 40% 1 06.02.2027 -
Lucas Da Cunha Como Aktiv 142 / 135 40% 1 05.02.2027 -
Josh Tymon Swansea City Aktiv 123 / 109 40% 1 02.02.2027 -
Kellen Fisher Norwich City Aktiv 135 / 134 40% 1 02.02.2027 -
Juan Luis Alfaro Banfield Aktiv 103 / 108 40% 1 07.01.2027 -
Lewis Bate Stockport County Aktiv 130 / 125 40% 1 06.01.2027 -
Michael Craig Leyton Orient Aktiv 125 / 128 40% 1 06.01.2027 -
Liam Thompson Mansfield Town Aktiv 127 / 120 40% 1 04.01.2027 -
Romano Floriani Mussolini Modena Aktiv 144 / 115 40% 1 04.01.2027 -
Horacio Tijanovich Central Córdoba SdE Aktiv 128 / 112 40% 1 30.12.2026 -
Leandro Andrade Polissia Aktiv 132 / 142 40% 1 30.12.2026 -
Piero Magallanes Sport Huancayo Aktiv 108 / 85 48% 1 28.12.2026 -
Lebogang Zwane Black Aces Aktiv 96 / 113 40% 1 21.12.2026 -
Alejandro Andrade Morelia Verhandlung 107 / 101 40% 1 21.12.2026 -
Piero Cari Alianza Lima Verloren 81 / 89 48% 1 14.12.2026 -
Ignacio Vázquez Platense Aktiv 124 / 121 40% 1 14.12.2026 -
Ousmane Diawara Altach Aktiv 123 / 110 40% 1 29.11.2026 Mehr Infos nötig
Miro Dinamo Makhachkala Aktiv 100 / 122 40% 1 29.11.2026 -
Javi Zarzo Viitorul Aktiv 98 / 115 40% 1 29.11.2026 -
Bautista Carboni Basaksehir Aktiv 102 / 131 40% 1 29.11.2026 -
Facundo González Fauve Azur Elite Aktiv 88 / 94 40% 2 28.11.2026 -
Javier Mena Deportivo Pereira Aktiv 106 / 99 40% 1 28.11.2026 -
Razvan Puscas Astra Aktiv 123 / 98 40% 1 27.11.2026 -
Yaroslav Karabin Karpaty Aktiv 122 / 112 40% 1 25.11.2026 -
Danyil Alefirenko Chornomorets Aktiv 115 / 116 40% 1 25.11.2026 -
Mauro Rodrigues Botev Plovdiv Aktiv 120 / 120 40% 1 25.11.2026 -
Salah Mohsen El Masry Aktiv 106 / 115 40% 2 23.11.2026 -
Ştefan Baiaram Universitatea Craiova Aktiv 103 / 107 40% 1 23.11.2026 -
Yefrín Castillo Lokomotiv Plovdiv Aktiv 89 / 91 40% 2 21.11.2026 -
Felipe Fernández Vorskla Aktiv 90 / 94 40% 1 20.11.2026 -
Ľubomír Tupta Neftchi Aktiv 114 / 107 40% 1 20.11.2026 -
Andrii Khoma Chornomorets Aktiv 89 / 84 40% 1 19.11.2026 -
Juan Cruz Zurbriggen San Telmo Aktiv 99 / 111 40% 4 18.11.2026 -
Nicolás Fernández Tristán Suárez Aktiv 124 / 104 40% 1 18.11.2026 Mehr Infos nötig
Ildi Gruda Egnatia Rrogozhinë Aktiv 114 / 99 40% 1 18.11.2026 -
Ekain Orobengoa Real Sociedad Aktiv 82 / 104 40% 2 17.11.2026 -
Hernán Luna NK Domzale Aktiv 116 / 91 40% 2 15.11.2026 -
Stephen Humphrys Bradford City Aktiv 93 / 125 40% 1 15.11.2026 -
Mykola Haiduchyk Polissia Aktiv 125 / 127 40% 2 12.11.2026 -
Guillermo Bassi Lokomotiv Plovdiv Aktiv 96 / 82 40% 1 12.11.2026 -
Brandon Hanlan Doncaster Rovers Aktiv 103 / 97 40% 1 11.11.2026 -
Fernando Gorriarán Tigres Aktiv 141 / 136 40% 2 09.11.2026 Mehr Infos nötig
Franco Cristaldo Talleres Aktiv 134 / 118 40% 1 09.11.2026 Mehr Infos nötig
Marcos Cuenca Zaragoza Aktiv 98 / 125 40% 2 08.11.2026 -
Diamanka Senghor Mosta Aktiv 78 / 85 40% 1 08.11.2026 -
Sam Nombe Milton Keynes Dons Aktiv 112 / 104 40% 1 07.11.2026 -
Yurii Klymchuk Kolos Aktiv 102 / 121 40% 1 06.11.2026 -
Marcelo Torres Gimnasia La Plata Aktiv 125 / 116 40% 2 05.11.2026 -
Antony Medrano Dobrudzha Aktiv 76 / 86 40% 1 03.11.2026 -
Radek Šiler Podbrezova Aktiv 106 / 125 40% 1 02.11.2026 -
Andreas Helmersen Bodo/Glimt Aktiv 132 / 116 40% 1 02.11.2026 Mehr Infos nötig
Oto John CR Belouizdad Aktiv 85 / 84 40% 1 01.11.2026 -
Alexandr Dolgov Amkar Aktiv 111 / 102 40% 1 31.10.2026 -
Mohamed Konaté Akhmat Grozny Aktiv 115 / 109 40% 1 31.10.2026 -
Amos Inusah Wa All Stars Aktiv 131 / 125 40% 1 30.10.2026 -
Edarlyn Reyes Arsenal Tula Aktiv 104 / 102 40% 1 30.10.2026 Mehr Infos nötig
Daniel Tarazona Neftchi Aktiv 74 / 101 40% 1 29.10.2026 -
Marcus Browne AFC Wimbledon Aktiv 95 / 87 40% 2 28.10.2026 -
Lucas González Estudiantes Aktiv 109 / 113 40% 1 28.10.2026 -
Brandon Márquez Sarmiento Aktiv 103 / 104 40% 2 27.10.2026 -
Claudio Salto Almagro Aktiv 104 / 109 40% 1 27.10.2026 -
Alejandro Melo Temperley Aktiv 127 / 126 40% 1 27.10.2026 -
Jorge Padilla Cherno More Aktiv 87 / 118 40% 1 27.10.2026 -
Matías Mansilla Yenisey Aktiv 96 / 73 40% 3 26.10.2026 -
Eric Ramírez Carabobo Aktiv 109 / 106 40% 1 26.10.2026 -
Augusto Berrondo Tristán Suárez Aktiv 97 / 116 40% 1 25.10.2026 -
Sergio Rondon Atletico Venezuela Aktiv 90 / 101 40% 1 23.10.2026 -
Jeriel De Santis Caracas Aktiv 101 / 94 40% 2 21.10.2026 -
Rodrigo Trejo Vorskla Aktiv 105 / 109 40% 1 19.10.2026 -
Steven Pabón Trujillanos Aktiv 90 / 94 40% 1 18.10.2026 -
Mathías Silvera Chaco For Ever Aktiv 117 / 106 40% 1 18.10.2026 -
Enmanuel Caballero Vitebsk Aktiv 87 / 110 40% 1 16.10.2026 -
Valentín Depietri Talleres Aktiv 111 / 116 40% 1 13.10.2026 -
Sergio Riffo Kolkheti Aktiv 104 / 99 40% 1 11.10.2026 -
Javier Martínez Almirante Brown Aktiv 116 / 108 40% 1 11.10.2026 -
Bryan Rivera Estudiantes de Merida Aktiv 111 / 108 40% 1 10.10.2026 -
Alasana Yirajang Slovan Bratislava Aktiv 113 / 114 40% 1 10.10.2026 -
Alejandro Aquino Chaco For Ever Aktiv 95 / 107 40% 1 09.10.2026 -
Matty Stevens AFC Wimbledon Aktiv 99 / 97 40% 2 08.10.2026 -
Matías Pellegrini Vélez Aktiv 121 / 110 40% 1 07.10.2026 -
Mauro Schönfeld Stjarnan Aktiv 114 / 124 40% 3 06.10.2026 -
Yílmar Velásquez Santa Fe Aktiv 122 / 118 40% 1 05.10.2026 -
Haret Ortega Santos Laguna Aktiv 118 / 113 40% 1 05.10.2026 -
Brayan Alcócer Rubin Aktiv 84 / 111 40% 1 04.10.2026 -
Ibrahim Aliyu Houston Dynamo Aktiv 131 / 121 40% 3 01.10.2026 -
Gonzalo Córdoba Lokomotivi Aktiv 111 / 97 40% 1 28.09.2026 -
Chidera Oparaocha Ikorodu City Aktiv 99 / 93 40% 1 28.09.2026 -
Thiago Perugini San Lorenzo Aktiv 99 / 105 40% 1 26.09.2026 -
Ismail Sarki Niger Tornadoes Aktiv 91 / 92 40% 1 25.09.2026 -
Agustín Páez Maipú Aktiv 103 / 87 40% 1 25.09.2026 -
Wladimir Cid NK Zavrc Aktiv 109 / 105 40% 1 23.09.2026 -
Ronny Maza Aragua Aktiv 85 / 96 40% 2 22.09.2026 -
Ronaldo Peña Deportivo Lara Aktiv 115 / 105 40% 1 17.09.2026 -
José Sequera Zamora Aktiv 102 / 88 40% 2 15.09.2026 -
Fortune Bassey Rivers United Aktiv 89 / 100 40% 1 14.09.2026 -
Cristhian Medina Smorgon Aktiv 77 / 86 40% 1 14.09.2026 -
Jacobo Escobar Sokol Aktiv 89 / 110 40% 1 13.09.2026 -
Oke Kayode Bendel Insurance Aktiv 99 / 87 40% 1 13.09.2026 -
José Rivas Gamboa Trujillanos Aktiv 87 / 111 40% 2 12.09.2026 -
Ramiro Ruiz Rodríguez Atlético Tucumán Aktiv 130 / 121 40% 3 12.09.2026 -
Lautaro Pertusatti River Plate Aktiv 108 / 96 40% 1 12.09.2026 -
Mauricio Márquez Caracas Aktiv 108 / 109 40% 2 11.09.2026 -
David Barrero Podbrezova Aktiv 70 / 97 40% 1 08.09.2026 -
José Balza Deportivo Tachira Aktiv 109 / 111 40% 1 08.09.2026 -
Nahuel Brunet Godoy Cruz Aktiv 111 / 101 40% 1 08.09.2026 -
Valentino Massi Sarmiento Aktiv 84 / 109 40% 1 08.09.2026 -
Rodrigo Pollero Deportivo Tachira Aktiv 104 / 113 40% 1 05.09.2026 -
Andrés Molinas Omonoia Aktiv 100 / 112 40% 1 04.09.2026 -
Joseph Atule Barau Aktiv 78 / 72 40% 1 04.09.2026 -
Cristian Ibáñez San Martín Aktiv 80 / 99 40% 1 03.09.2026 -
Joshuan Berríos Carabobo Aktiv 100 / 97 40% 1 03.09.2026 -
Alberto Benítez Villalba FCI Tallinn Aktiv 100 / 83 40% 1 01.09.2026 -
Elías Ovelar Neman Aktiv 77 / 100 40% 2 31.08.2026 -
Lucas Pazos Kolkheti Aktiv 107 / 86 40% 1 28.08.2026 -
Juan Alfredo Arrieta Metropolitanos Aktiv 94 / 102 40% 1 27.08.2026 -
José Barragán Zamora Aktiv 103 / 86 40% 1 26.08.2026 -
David Savarino Llaneros Aktiv 87 / 100 40% 1 25.08.2026 -
Genaro Rossi San Martín SJ Aktiv 94 / 110 40% 1 15.08.2026 -
José Rivera Universitario Verloren 114 / 109 40% 1 14.08.2026 -
Tomás Romero Unión de Santa Fe Aktiv 100 / 114 40% 1 13.08.2026 -
Juan Carlos Castellano Deportivo La Guaira Aktiv 122 / 115 40% 1 06.08.2026 -
Cristhofer Mesías Universidad de Concepcion Aktiv 93 / 115 40% 1 06.08.2026 -
Alejandro Samudio Nacional Aktiv 98 / 104 40% 1 05.08.2026 -
Teun Gijselhart Deportivo La Coruña Aktiv 119 / 124 40% 1 04.08.2026 -
Francisco González Metilli Belgrano Aktiv 121 / 137 40% 1 04.08.2026 -
Alexis Steimbach Gimnasia La Plata Aktiv 107 / 127 40% 1 04.08.2026 -
Brahian Cuello Unión de Santa Fe Aktiv 101 / 119 40% 1 02.08.2026 -
Martín Ortega Newell's Old Boys Aktiv 122 / 114 40% 1 02.08.2026 -
Jhojan Valencia Universidad Catolica Aktiv 129 / 122 40% 1 01.08.2026 -
Mariano Bracamonte Deportivo Riestra Aktiv 132 / 103 40% 1 01.08.2026 -
Emiliano González Almagro Aktiv 129 / 120 40% 1 01.08.2026 -
Harlen Castillo Gimnasia La Plata Aktiv 130 / 121 40% 1 01.08.2026 -